Weather History for New Richmond, WI

Change the Weather History Date:

Monday, January 14, 2013

  Actual Average (KMSP) Record (KMSP)
Temperature  
Mean Temperature 6 °F 15 °F  
Max Temperature 12 °F 23 °F 49 °F (1944)
Min Temperature 1 °F 7 °F -26 °F (1972)
Degree Days  
Heating Degree Days 58 50  
Month to date heating degree days 694  
Since 1 July heating degree days 3717  
Cooling Degree Days 0 0  
Month to date cooling degree days 0  
Year to date cooling degree days 0  
Moisture  
Dew Point 1 °F    
Average Humidity 79    
Maximum Humidity 92    
Minimum Humidity 62    
Precipitation  
Precipitation 0.00 in 0.02 in 0.34 in (2001)
Month to date precipitation 0.43  
Year to date precipitation 0.43  
Snow  
Snow 0.00 in 0.40 in 4.40 in (1999)
Month to date snowfall 5.6  
Since 1 July snowfall 27.4  
Snow Depth -    
Sea Level Pressure  
Sea Level Pressure 30.31 in    
Wind  
Wind Speed 5 mph (SW)    
Max Wind Speed 10 mph    
Max Gust Speed -    
Visibility 10 miles    
Events Snow    
T = Trace of Precipitation, MM = Missing Value Source: NWS Daily Summary

Daily Weather History Graph

Daily Weather History Graph

Search for Another Location

Airport:

Trip Planner

Search our weather history database for the weather conditions in past years. The results will help you decide how hot, cold, wet, or windy it might be!

Date:

Astronomy

Jan. 14, 2013 Rise Set
Actual Time 7:45 AM CST 4:53 PM CST
Civil Twilight 7:12 AM CST 5:26 PM CST
Nautical Twilight 6:36 AM CST 6:02 PM CST
Astronomical Twilight 6:00 AM CST 6:38 PM CST
Moon 9:08 AM CST (1/14) 8:51 PM CST (1/14)
Length of Visible Light 10h 13m
Length of Day
9h 07m
Waxing Crescent, 11% of the Moon is Illuminated
Jan 14
Waxing Crescent
Jan 18
First Quarter
Jan 26
Full
Feb 3
Last Quarter
Feb 10
New

Hourly Weather History & Observations

Time (CST) Temp. Windchill Dew Point Humidity Pressure Visibility Wind Dir Wind Speed Gust Speed Precip Events Conditions
12:15 AM 1.4 °F -8.3 °F -0.4 °F 92% 30.21 in 10.0 mi SW 4.6 mph - N/A   Clear
12:35 AM 1.4 °F -8.3 °F -2.2 °F 85% 30.21 in 10.0 mi SW 4.6 mph - N/A   Clear
12:55 AM 1.4 °F -9.9 °F -0.4 °F 92% 30.22 in 10.0 mi SW 5.8 mph - N/A   Clear
1:15 AM 1.4 °F -9.9 °F -0.4 °F 92% 30.23 in 10.0 mi SSW 5.8 mph - N/A   Clear
1:35 AM 1.4 °F -8.3 °F -2.2 °F 85% 30.23 in 10.0 mi SW 4.6 mph - N/A   Clear
1:55 AM 1.4 °F -9.9 °F -0.4 °F 92% 30.23 in 10.0 mi SW 5.8 mph - N/A   Clear
2:15 AM 1.4 °F -9.9 °F -0.4 °F 92% 30.24 in 10.0 mi SSW 5.8 mph - N/A   Clear
2:35 AM 1.4 °F -8.3 °F -0.4 °F 92% 30.24 in 10.0 mi SSW 4.6 mph - N/A   Clear
2:55 AM 1.4 °F -8.3 °F -0.4 °F 92% 30.25 in 10.0 mi SW 4.6 mph - N/A   Clear
3:35 AM 1.4 °F -8.3 °F -0.4 °F 92% 30.25 in 10.0 mi SW 4.6 mph - N/A   Clear
4:15 AM 1.4 °F -6.2 °F -0.4 °F 92% 30.24 in 10.0 mi SW 3.5 mph - N/A   Clear
4:35 AM 1.4 °F -8.3 °F -2.2 °F 85% 30.25 in 10.0 mi SSW 4.6 mph - N/A   Clear
4:55 AM 1.4 °F -11.3 °F -0.4 °F 92% 30.25 in 10.0 mi SSW 6.9 mph - N/A   Clear
5:15 AM 3.2 °F -9.1 °F -0.4 °F 85% 30.26 in 10.0 mi SSW 6.9 mph - N/A   Clear
5:35 AM 3.2 °F -9.1 °F -0.4 °F 85% 30.27 in 10.0 mi SW 6.9 mph - N/A   Clear
5:55 AM 3.2 °F -10.3 °F -0.4 °F 85% 30.28 in 10.0 mi SW 8.1 mph - N/A   Clear
6:15 AM 3.2 °F -7.8 °F -0.4 °F 85% 30.29 in 10.0 mi SW 5.8 mph - N/A   Clear
6:35 AM 3.2 °F -6.2 °F -0.4 °F 85% 30.29 in 10.0 mi SW 4.6 mph - N/A   Clear
6:55 AM 1.4 °F -6.2 °F -0.4 °F 92% 30.29 in 10.0 mi SW 3.5 mph - N/A   Clear
7:15 AM 3.2 °F -6.2 °F -0.4 °F 85% 30.31 in 10.0 mi SW 4.6 mph - N/A   Clear
7:35 AM 3.2 °F -9.1 °F -0.4 °F 85% 30.31 in 10.0 mi SW 6.9 mph - N/A   Scattered Clouds
7:55 AM 5.0 °F -5.6 °F 1.4 °F 85% 30.32 in 7.0 mi SW 5.8 mph - N/A Snow Light Snow
8:15 AM 5.0 °F -5.6 °F 1.4 °F 85% 30.33 in 10.0 mi SW 5.8 mph - N/A   Mostly Cloudy
8:35 AM 3.2 °F -7.8 °F 1.4 °F 92% 30.34 in 10.0 mi WSW 5.8 mph - N/A   Clear
8:55 AM 5.0 °F -5.6 °F 1.4 °F 85% 30.35 in 10.0 mi WSW 5.8 mph - N/A   Clear
9:15 AM 5.0 °F -5.6 °F 1.4 °F 85% 30.36 in 10.0 mi WSW 5.8 mph - N/A   Clear
9:35 AM 5.0 °F -8.1 °F 1.4 °F 85% 30.36 in 10.0 mi WSW 8.1 mph - N/A   Clear
9:55 AM 6.8 °F -7.8 °F 1.4 °F 79% 30.36 in 10.0 mi West 10.4 mph - N/A   Clear
10:15 AM 5.0 °F -9.1 °F 1.4 °F 85% 30.37 in 5.0 mi West 9.2 mph - N/A   Scattered Clouds
10:35 AM 8.6 °F -5.5 °F 3.2 °F 79% 30.37 in 7.0 mi West 10.4 mph - N/A   Mostly Cloudy
10:55 AM 8.6 °F -5.5 °F 3.2 °F 79% 30.37 in 10.0 mi WSW 10.4 mph - N/A   Scattered Clouds
11:15 AM 8.6 °F -5.5 °F 1.4 °F 73% 30.36 in 10.0 mi West 10.4 mph - N/A   Clear
11:35 AM 10.4 °F -2.4 °F 1.4 °F 67% 30.36 in 10.0 mi WSW 9.2 mph - N/A   Scattered Clouds
11:55 AM 10.4 °F -2.4 °F 1.4 °F 67% 30.35 in 10.0 mi WSW 9.2 mph - N/A   Scattered Clouds
12:15 PM 10.4 °F -3.3 °F 1.4 °F 67% 30.35 in 10.0 mi West 10.4 mph - N/A   Clear
12:35 PM 10.4 °F -2.4 °F 1.4 °F 67% 30.34 in 10.0 mi West 9.2 mph - N/A   Scattered Clouds
12:55 PM 10.4 °F -1.5 °F 1.4 °F 67% 30.34 in 10.0 mi West 8.1 mph - N/A   Mostly Cloudy
1:15 PM 10.4 °F -1.5 °F 1.4 °F 67% 30.34 in 10.0 mi West 8.1 mph - N/A   Mostly Cloudy
1:35 PM 10.4 °F 0.8 °F 1.4 °F 67% 30.34 in 10.0 mi West 5.8 mph - N/A   Overcast
1:55 PM 12.2 °F 1.7 °F 1.4 °F 62% 30.34 in 10.0 mi West 6.9 mph - N/A   Scattered Clouds
2:15 PM 12.2 °F 1.7 °F 1.4 °F 62% 30.35 in 10.0 mi West 6.9 mph - N/A   Clear
2:35 PM 12.2 °F 0.7 °F 1.4 °F 62% 30.35 in 10.0 mi West 8.1 mph - N/A   Clear
2:55 PM 12.2 °F 1.7 °F 1.4 °F 62% 30.35 in 10.0 mi West 6.9 mph - N/A   Clear
3:15 PM 12.2 °F 0.7 °F 1.4 °F 62% 30.36 in 10.0 mi West 8.1 mph - N/A   Clear
3:35 PM 12.2 °F 4.3 °F 1.4 °F 62% 30.35 in 10.0 mi WNW 4.6 mph - N/A   Clear
4:15 PM 10.4 °F - 1.4 °F 67% 30.36 in 10.0 mi Calm Calm - N/A   Clear
4:35 PM 10.4 °F - 1.4 °F 67% 30.36 in 10.0 mi Calm Calm - N/A   Clear
4:55 PM 8.6 °F - 1.4 °F 73% 30.35 in 10.0 mi Calm Calm - N/A   Clear
5:15 PM 8.6 °F - 1.4 °F 73% 30.35 in 10.0 mi Calm Calm - N/A   Clear
5:35 PM 8.6 °F - 1.4 °F 73% 30.36 in 10.0 mi Calm Calm - N/A   Clear
5:55 PM 8.6 °F 2.0 °F 1.4 °F 73% 30.35 in 10.0 mi SSE 3.5 mph - N/A   Clear
6:15 PM 8.6 °F 2.0 °F 1.4 °F 73% 30.35 in 10.0 mi SSE 3.5 mph - N/A   Clear
6:35 PM 8.6 °F - 1.4 °F 73% 30.35 in 10.0 mi Calm Calm - N/A   Clear
6:55 PM 5.0 °F - 1.4 °F 85% 30.35 in 10.0 mi Calm Calm - N/A   Clear
7:15 PM 5.0 °F -2.1 °F 1.4 °F 85% 30.35 in 10.0 mi South 3.5 mph - N/A   Scattered Clouds
7:35 PM 6.8 °F -0.1 °F 1.4 °F 79% 30.34 in 10.0 mi South 3.5 mph - N/A   Mostly Cloudy
7:55 PM 8.6 °F 2.0 °F 3.2 °F 79% 30.33 in 10.0 mi South 3.5 mph - N/A   Overcast
8:15 PM 8.6 °F 0.1 °F 3.2 °F 79% 30.33 in 10.0 mi South 4.6 mph - N/A   Mostly Cloudy
8:35 PM 8.6 °F - 1.4 °F 73% 30.33 in 10.0 mi Calm Calm - N/A   Mostly Cloudy
8:55 PM 8.6 °F 0.1 °F 3.2 °F 79% 30.32 in 10.0 mi SSE 4.6 mph - N/A   Overcast
9:15 PM 8.6 °F -1.3 °F 3.2 °F 79% 30.32 in 10.0 mi SSE 5.8 mph - N/A   Overcast
9:35 PM 10.4 °F 2.2 °F 3.2 °F 73% 30.31 in 10.0 mi SSE 4.6 mph - N/A   Overcast
10:15 PM 10.4 °F 4.0 °F 5.0 °F 79% 30.30 in 10.0 mi South 3.5 mph - N/A   Overcast
10:35 PM 10.4 °F 4.0 °F 3.2 °F 73% 30.29 in 10.0 mi SSE 3.5 mph - N/A   Mostly Cloudy
10:55 PM 8.6 °F - 3.2 °F 79% 30.30 in 10.0 mi Calm Calm - N/A   Scattered Clouds
11:15 PM 8.6 °F 0.1 °F 3.2 °F 79% 30.29 in 10.0 mi SE 4.6 mph - N/A   Clear
11:35 PM 6.8 °F -3.5 °F 3.2 °F 85% 30.29 in 10.0 mi SE 5.8 mph - N/A   Clear
11:55 PM 6.8 °F -2.0 °F 3.2 °F 85% 30.28 in 10.0 mi SE 4.6 mph - N/A   Clear